Regional Weather Roundup
Issued by NWS

Home | Current Version | Previous Version | Graphics & Text | Print | Product List | Glossary On
Versions: 1 2 3 4 5 6 7 8 9 10 11 12 13 14 15 16 17 18 19 20 21 22 23 24 25 26 27 28 29 30 31 32 33 34 35 36 37 38 39 40 41 42 43 44 45 46 47 48 49 50
000
ASUS43 KOAX 040810
RWRNE

WEATHER ROUNDUP FOR NEBRASKA
NATIONAL WEATHER SERVICE OMAHA NE
300 AM CDT MON MAY 04 2015

NOTES: SATELLITE DATA IS BEING USED TO AUGMENT CLOUD COVER ABOVE
       12000 FEET.
       "FAIR" INDICATES FEW OR NO CLOUDS BELOW 12,000 FEET WITH NO
       SIGNIFICANT WEATHER AND/OR OBSTRUCTIONS TO VISIBILITY.

  * THESE STATIONS DO NOT REPORT WEATHER SUCH AS RAIN...SNOW OR FOG.

NEZ001>004-019>022-054>056-040900-
NEBRASKA PANHANDLE

CITY           SKY/WX    TMP DP  RH WIND       PRES   REMARKS
SCOTTSBLUFF    MOCLDY    53  39  59 E8        30.08R
ALLIANCE       CLOUDY    50  38  63 SE5       30.08R
CHADRON        CLOUDY    53  34  48 E7        30.08R
KIMBALL        MOCLDY    47  40  77 SE7       30.10R
SIDNEY         CLOUDY    51  39  63 E8        30.09S
$$

NEZ057>060-069>072-079>082-040900-
SOUTHWEST NEBRASKA

CITY           SKY/WX    TMP DP  RH WIND       PRES   REMARKS
NORTH PLATTE   MOCLDY    53  37  54 NE6       30.04R
IMPERIAL       MOCLDY    53  38  56 NE7       30.07S
LEXINGTON      CLOUDY    59  38  46 NE14      30.00R
MCCOOK         CLOUDY    61  38  42 NE12      30.02F
OGALLALA       CLOUDY    56  35  45 E15       30.07R
$$

NEZ005>010-023>029-035>040-094-040900-
NORTH CENTRAL NEBRASKA

CITY           SKY/WX    TMP DP  RH WIND       PRES   REMARKS
VALENTINE      PTCLDY    48  31  51 NE7       30.10R
AINSWORTH      PTCLDY    50  31  48 NE8       30.09S
BROKEN BOW     PTCLDY    58  37  45 NE20      30.01S
O`NEILL        CLOUDY    54  37  54 N8        30.07S
ORD            MOCLDY    57  37  47 NE10      30.00F
THEDFORD       CLOUDY    55  35  47 NE6       30.08F
$$

NEZ041-046>049-061>064-073>077-083>087-040900-
SOUTH CENTRAL NEBRASKA

CITY           SKY/WX    TMP DP  RH WIND       PRES   REMARKS
GRAND ISLAND   CLOUDY    61  40  45 NE16G24   29.96R
AURORA         CLOUDY    61  45  56 NE20      29.95R
HASTINGS       CLOUDY    61  43  51 NE25G32   29.92S
HEBRON         CLOUDY    67  57  70 E10       29.85R
HOLDREGE       CLOUDY    60  38  43 NE8       30.01R
KEARNEY *      CLOUDY    61  37  41 N22       29.96S
YORK           CLOUDY    59  46  63 NE18G26   29.94R
$$

NEZ011>018-030>034-042>045-040900-
NORTHEAST NEBRASKA

CITY           SKY/WX    TMP DP  RH WIND       PRES   REMARKS
NORFOLK        CLOUDY    61  36  39 N15       29.99F
ALBION         CLOUDY    61  37  41 N12G21    30.00S
BLAIR          CLOUDY    61  50  67 N10       29.95R
COLUMBUS *     CLOUDY    59  43  55 NE15      29.98R
FREMONT        LGT RAIN  60  49  66 N5        29.96S
TEKAMAH        CLOUDY    59  47  64 N8        29.96R
WAYNE          CLOUDY    58  38  48 N14       30.00S
$$

NEZ050>053-065>068-078-088>093-040900-
SOUTHEAST NEBRASKA

CITY           SKY/WX    TMP DP  RH WIND       PRES   REMARKS
LINCOLN        CLOUDY    62  55  77 E5        29.94R
OMAHA EPPLEY   CLOUDY    61  55  81 N5        29.94R
BEATRICE       CLOUDY    63  58  85 E15       29.89S
FALLS CITY     CLOUDY    64  58  80 E13       29.95S
NEBRASKA CITY  LGT RAIN  60  54  80 SE15      29.92F
PLATTSMOUTH    CLOUDY    59  53  80 CALM      29.93F
$$

NEZ044-045-051>053-067-040900-
OMAHA AREA

CITY           SKY/WX    TMP DP  RH WIND       PRES   REMARKS
OMAHA EPPLEY   CLOUDY    61  55  81 N5        29.94R
BLAIR          CLOUDY    61  50  67 N10       29.95R
FREMONT        LGT RAIN  60  49  66 N5        29.96S
MILLARD        CLOUDY    64  55  74 CALM      29.95R
OFFUTT AFB     MOCLDY    61  56  84 N10       29.93R
PLATTSMOUTH    CLOUDY    59  53  80 CALM      29.93F
WAHOO          CLOUDY    60  49  68 NE9       29.94S
$$



USA.gov is the U.S. government's official web portal to all federal, state and local government web resources and services.